Location: Bacharowice
(49.9333°N, 19.5833°E)
Time: 21:58:49
(UTC+00:00)

Envisat - Pass Details

Date: 06 October 2022
Orbit: 763 x 765 km, 98.2° (Epoch: 06 December)

Event Time Altitude Azimuth Distance (km) Brightness Sun altitude
Rises 03:44:02 0° 10° (N) 3,247 6.5 -11.3°
Reaches altitude 10° 03:46:23 10° 6° (N) 2,316 5.6 -10.9°
Maximum altitude 03:51:20 53° 291° (WNW) 939 3.1 -10.1°
Drops below altitude 10° 03:56:15 10° 215° (SW) 2,299 5.1 -9.3°
Sets 03:58:35 0° 211° (SSW) 3,221 5.9 -8.9°
